Stündliche Wetter Cegielnia

Heute, 19 Januar, Dienstag

Zeit Temperatur Niederschläge Wind Luftdruck Luftfeuchtigkeit
00:00 -9°C° 0.2 mm 3 m/S 760 mmHg 95%
01:00 -8°C° 0 mm 3 m/S 759 mmHg 94%
02:00 -7°C° 0.5 mm 3 m/S 759 mmHg 95%
03:00 -6°C° 0.5 mm 3 m/S 758 mmHg 96%
04:00 -5°C° 0.5 mm 3 m/S 758 mmHg 97%
05:00 -4°C° 0.3 mm 3 m/S 757 mmHg 97%
06:00 -2°C° 0.3 mm 3 m/S 757 mmHg 97%
07:00 -1°C° 0 mm 3 m/S 757 mmHg 97%
08:00 0°C° 0.1 mm 3 m/S 757 mmHg 98%
09:00 0°C° 0.1 mm 3 m/S 757 mmHg 98%
10:00 0°C° 0.1 mm 3 m/S 757 mmHg 98%
11:00 0°C° 0.1 mm 3 m/S 756 mmHg 99%
12:00 0°C° 0.1 mm 3 m/S 756 mmHg 99%
13:00 -1°C° 0 mm 4 m/S 755 mmHg 99%
14:00 -1°C° 0.1 mm 4 m/S 755 mmHg 99%
15:00 -1°C° 0.1 mm 4 m/S 754 mmHg 98%
16:00 -1°C° 0.1 mm 4 m/S 754 mmHg 98%
17:00 -1°C° 0.7 mm 4 m/S 753 mmHg 98%
18:00 -1°C° 0.7 mm 4 m/S 753 mmHg 98%
19:00 -1°C° 0.7 mm 4 m/S 753 mmHg 98%
20:00 -1°C° 0.1 mm 4 m/S 753 mmHg 98%
21:00 -1°C° 0.1 mm 4 m/S 752 mmHg 98%
22:00 -1°C° 0.1 mm 4 m/S 752 mmHg 97%
23:00 -1°C° 0.1 mm 4 m/S 752 mmHg 97%

Morgen, 20 Januar, Mittwoch

Zeit Temperatur Niederschläge Wind Luftdruck Luftfeuchtigkeit
00:00 -1°C° 0.1 mm 4 m/S 752 mmHg 97%
01:00 -1°C° 0.1 mm 4 m/S 751 mmHg 97%
02:00 -1°C° 0.5 mm 4 m/S 751 mmHg 97%
03:00 0°C° 0.5 mm 4 m/S 751 mmHg 98%
04:00 0°C° 0.5 mm 4 m/S 751 mmHg 99%
05:00 0°C° 0.2 mm 4 m/S 751 mmHg 99%
06:00 0°C° 0.2 mm 5 m/S 751 mmHg 99%
07:00 +1°C° 0.2 mm 6 m/S 751 mmHg 99%
08:00 0°C° 0 mm 5 m/S 752 mmHg 97%
09:00 0°C° 0 mm 5 m/S 752 mmHg 95%
10:00 0°C° 0 mm 5 m/S 752 mmHg 94%
11:00 0°C° 0 mm 5 m/S 752 mmHg 95%
12:00 0°C° 0 mm 5 m/S 752 mmHg 95%
13:00 0°C° 0 mm 5 m/S 752 mmHg 96%
14:00 0°C° 0 mm 5 m/S 752 mmHg 94%
15:00 0°C° 0 mm 5 m/S 751 mmHg 91%
16:00 0°C° 0 mm 5 m/S 751 mmHg 89%
17:00 0°C° 0 mm 5 m/S 751 mmHg 89%
18:00 0°C° 0 mm 5 m/S 751 mmHg 88%
19:00 0°C° 0 mm 4 m/S 751 mmHg 88%
20:00 0°C° 0 mm 4 m/S 751 mmHg 87%
21:00 0°C° 0 mm 4 m/S 751 mmHg 86%
22:00 0°C° 0 mm 4 m/S 751 mmHg 86%
23:00 0°C° 0 mm 4 m/S 751 mmHg 85%

übermorgen, 21 Januar, Donnerstag

Zeit Temperatur Niederschläge Wind Luftdruck Luftfeuchtigkeit
00:00 0°C° 0 mm 4 m/S 751 mmHg 85%
01:00 0°C° 0 mm 4 m/S 751 mmHg 85%
02:00 0°C° 0 mm 4 m/S 751 mmHg 84%
03:00 0°C° 0 mm 4 m/S 751 mmHg 84%
04:00 0°C° 0 mm 4 m/S 751 mmHg 83%
05:00 0°C° 0 mm 4 m/S 751 mmHg 83%
06:00 0°C° 0 mm 5 m/S 751 mmHg 82%
07:00 0°C° 0 mm 5 m/S 751 mmHg 82%
08:00 0°C° 0 mm 5 m/S 750 mmHg 84%
09:00 0°C° 0 mm 5 m/S 750 mmHg 87%
10:00 +1°C° 0 mm 5 m/S 750 mmHg 89%
11:00 +1°C° 0 mm 5 m/S 750 mmHg 91%
12:00 +1°C° 0 mm 5 m/S 750 mmHg 92%
13:00 +1°C° 0 mm 5 m/S 750 mmHg 94%
14:00 +1°C° 0 mm 5 m/S 750 mmHg 92%
15:00 +1°C° 0 mm 5 m/S 750 mmHg 90%
16:00 0°C° 0 mm 5 m/S 749 mmHg 89%
17:00 0°C° 0 mm 5 m/S 749 mmHg 88%
18:00 0°C° 0 mm 5 m/S 749 mmHg 88%
19:00 0°C° 0 mm 5 m/S 749 mmHg 88%
20:00 0°C° 0 mm 5 m/S 749 mmHg 87%
21:00 0°C° 0 mm 5 m/S 748 mmHg 87%
22:00 0°C° 0 mm 5 m/S 748 mmHg 87%
23:00 0°C° 0 mm 5 m/S 748 mmHg 86%

22 Januar, Freitag

Zeit Temperatur Niederschläge Wind Luftdruck Luftfeuchtigkeit
00:00 0°C° 0 mm 5 m/S 747 mmHg 86%
01:00 0°C° 0 mm 5 m/S 747 mmHg 86%
02:00 0°C° 0 mm 5 m/S 746 mmHg 84%
03:00 0°C° 0 mm 5 m/S 746 mmHg 83%
04:00 0°C° 0 mm 5 m/S 745 mmHg 82%
05:00 +1°C° 0 mm 5 m/S 745 mmHg 84%
06:00 +1°C° 0 mm 6 m/S 744 mmHg 86%
07:00 +1°C° 0 mm 6 m/S 744 mmHg 88%
08:00 +1°C° 0 mm 6 m/S 743 mmHg 90%
09:00 +1°C° 0 mm 5 m/S 743 mmHg 92%
10:00 +1°C° 0 mm 5 m/S 742 mmHg 94%
11:00 +1°C° 0 mm 5 m/S 742 mmHg 93%
12:00 +2°C° 0 mm 5 m/S 743 mmHg 92%
13:00 +2°C° 0 mm 5 m/S 743 mmHg 91%
14:00 +2°C° 0 mm 5 m/S 743 mmHg 90%
15:00 +1°C° 0 mm 5 m/S 743 mmHg 89%
16:00 +1°C° 0 mm 5 m/S 743 mmHg 88%
17:00 +1°C° 0 mm 4 m/S 744 mmHg 89%
18:00 +1°C° 0 mm 4 m/S 745 mmHg 90%
19:00 0°C° 0 mm 4 m/S 746 mmHg 91%
20:00 +1°C° 0 mm 3 m/S 746 mmHg 91%
21:00 +1°C° 0 mm 3 m/S 746 mmHg 90%
22:00 +1°C° 0 mm 3 m/S 746 mmHg 90%
23:00 +2°C° 0 mm 2 m/S 746 mmHg 90%

23 Januar, Samstag

Zeit Temperatur Niederschläge Wind Luftdruck Luftfeuchtigkeit
00:00 +1°C° 0 mm 2 m/S 746 mmHg 89%
01:00 +1°C° 0 mm 2 m/S 747 mmHg 89%
02:00 +1°C° 0 mm 2 m/S 747 mmHg 89%
03:00 +1°C° 0 mm 2 m/S 747 mmHg 89%
04:00 +2°C° 0 mm 1 m/S 746 mmHg 89%
05:00 +2°C° 0 mm 1 m/S 746 mmHg 89%
06:00 +1°C° 0 mm 2 m/S 746 mmHg 89%
07:00 +1°C° 0 mm 2 m/S 746 mmHg 89%
08:00 +1°C° 0.1 mm 2 m/S 746 mmHg 90%
09:00 +2°C° 0.1 mm 2 m/S 745 mmHg 91%
10:00 +1°C° 0.1 mm 3 m/S 745 mmHg 91%
11:00 +1°C° 1.3 mm 3 m/S 744 mmHg 93%
12:00 0°C° 1.3 mm 4 m/S 743 mmHg 95%
13:00 0°C° 1.3 mm 4 m/S 742 mmHg 97%
14:00 0°C° 2.2 mm 4 m/S 742 mmHg 98%
15:00 +1°C° 2.2 mm 3 m/S 741 mmHg 98%
16:00 +2°C° 2.2 mm 2 m/S 741 mmHg 98%
17:00 +1°C° 0.4 mm 3 m/S 741 mmHg 98%
18:00 0°C° 0.4 mm 4 m/S 741 mmHg 98%
19:00 -1°C° 0.4 mm 5 m/S 741 mmHg 97%
20:00 -1°C° 0 mm 5 m/S 741 mmHg 96%
21:00 -1°C° 0 mm 5 m/S 741 mmHg 95%
22:00 -1°C° 0 mm 5 m/S 742 mmHg 95%
23:00 -1°C° 0 mm 5 m/S 742 mmHg 94%

24 Januar, Sonntag

Zeit Temperatur Niederschläge Wind Luftdruck Luftfeuchtigkeit
00:00 -1°C° 0 mm 5 m/S 742 mmHg 94%
01:00 -1°C° 0 mm 5 m/S 743 mmHg 94%
02:00 -1°C° 0 mm 4 m/S 743 mmHg 94%
03:00 -1°C° 0 mm 3 m/S 743 mmHg 94%
04:00 -1°C° 0 mm 3 m/S 744 mmHg 95%
05:00 -1°C° 0 mm 3 m/S 744 mmHg 95%
06:00 -1°C° 0 mm 2 m/S 744 mmHg 95%
07:00 -1°C° 0 mm 2 m/S 745 mmHg 96%
08:00 -1°C° 0 mm 2 m/S 745 mmHg 95%
09:00 +1°C° 0 mm 2 m/S 745 mmHg 95%
10:00 +1°C° 0 mm 2 m/S 746 mmHg 95%
11:00 +1°C° 0 mm 2 m/S 746 mmHg 94%
12:00 +1°C° 0 mm 2 m/S 746 mmHg 93%
13:00 +2°C° 0 mm 2 m/S 746 mmHg 92%
14:00 +1°C° 0 mm 2 m/S 746 mmHg 94%
15:00 +1°C° 0 mm 2 m/S 747 mmHg 95%
16:00 +1°C° 0 mm 2 m/S 747 mmHg 97%
17:00 +1°C° 0.1 mm 2 m/S 747 mmHg 98%
18:00 +1°C° 0.1 mm 2 m/S 747 mmHg 98%
19:00 -1°C° 0.1 mm 2 m/S 748 mmHg 98%
20:00 -1°C° 0.2 mm 2 m/S 748 mmHg 98%
21:00 -1°C° 0.2 mm 2 m/S 748 mmHg 98%
22:00 -1°C° 0.2 mm 2 m/S 748 mmHg 98%
23:00 -1°C° 0 mm 2 m/S 748 mmHg 97%
Mehr zeigen

Wir brauchen deine Erlaubnis

Meteoprog und unser Service Anbieter werden persönliche Daten aufbewahren, so wie Cookies, Geräte Bezeichnung oder ähnliche Technologien von deinem Gerät und Prozess, so wie Persönliche Daten Inhalte und Werbungen, genauso wie social Media und den Verkehr zu analysieren.

  • Aufbewahrung und/oder Zugang zu deiner Geräte Informationen.

    Cookies, Geräte Bezeichnung oder andere Informationen, können aufbewahrt oder Zugang zu deinem Gerät erhalten, für den Grund, der oben angegeben wird.

  • Personalisierte Werbung und Inhalte, Messungen, Einblick in das Publikum und Produkt Entwicklung.

    Werbungen und Inhalte können personalisiert werden, basierend auf ein Profil. Mehr Daten können besser personalisierte Werbungen und Inhalte hinzufügen. Werbung und Inhalte können gezeigt und gemessen werden. Einblicke über das Publikum, welche die Werbung gesehen haben und den Inhalt, können abgeleitet werden. So wie Daten können genutzt werden, um es zu verbessern oder die Benutzer Erfahrung zu verbessern das System und die Software.

Wenn du “Ich stimme zu” klickst, erlaubst du uns, die Cookies zu benutzen die Geräte Bezeichnung, den Web oder ähnliche Technologien zu benutzen. Deine Settings, können in deinem Gerät bei deinem Browser geändert werden.

Für den bestimmten Zweck, berechtigten Interessen beruhen darauf, mehr als auf den Inhalt. Du kannst mehr darüber in unseren Privaten und Cookie Politik lesen.